EA1AML Weather Reports


Display with metric or nautical units.
time (UTC)temp
F
wind
direction
speed
MPH
gust
MPH
rain 1hr
in
rain 24hr
in
rain mn
in
humidity
%
barometer
mb
20260506215006 52 63 1.0 3.0 0.00 0.00 0.00 80 1012.5
20260506214004 52 65 2.0 3.0 0.00 0.00 0.00 80 1012.5
20260506213005 52 73 2.0 3.0 0.00 0.00 0.00 80 1012.4
20260506212004 52 77 2.0 7.0 0.00 0.00 0.00 80 1012.3
20260506211004 53 66 2.0 9.0 0.00 0.00 0.00 79 1012.4
20260506204005 53 64 6.0 10.0 0.00 0.00 0.00 77 1012.1
20260506203004 54 61 4.0 9.0 0.00 0.00 0.00 76 1012.1
20260506202004 54 76 2.0 8.0 0.00 0.00 0.00 76 1012.1
20260506201005 54 52 5.0 9.0 0.00 0.00 0.00 76 1012.0
20260506200005 54 57 3.0 9.0 0.00 0.00 0.00 75 1011.9
20260506195005 55 46 5.0 10.0 0.00 0.00 0.00 75 1011.8
20260506194005 55 33 5.0 12.0 0.00 0.00 0.00 74 1011.8
20260506193005 55 21 5.0 10.0 0.00 0.00 0.00 74 1011.7
20260506192005 56 34 6.0 12.0 0.00 0.00 0.00 73 1011.7
20260506191005 57 12 5.0 12.0 0.00 0.00 0.00 71 1011.6
20260506185004 57 221 2.0 7.0 0.00 0.00 0.00 67 1011.6
20260506184004 57 207 5.0 8.0 0.00 0.00 0.00 67 1011.5
20260506183005 57 201 5.0 12.0 0.00 0.00 0.00 67 1011.4
20260506182005 58 185 7.0 12.0 0.00 0.00 0.00 67 1011.3
20260506181004 58 193 6.0 13.0 0.00 0.00 0.00 67 1011.4
20260506180005 58 187 8.0 13.0 0.00 0.00 0.00 65 1011.4
20260506175004 59 194 11.0 16.0 0.00 0.00 0.00 64 1011.4
20260506172005 60 222 3.0 9.0 0.00 0.00 0.00 61 1011.3
20260506171004 60 240 4.0 10.0 0.00 0.00 0.00 60 1011.4
20260506170004 60 197 6.0 13.0 0.00 0.00 0.00 61 1011.4
20260506165005 60 209 6.0 12.0 0.00 0.00 0.00 59 1011.4
20260506163004 63 261 5.0 10.0 0.00 0.00 0.00 57 1011.3
20260506162005 62 217 0.0 5.0 0.00 0.00 0.00 54 1011.3
20260506161004 61 190 2.0 7.0 0.00 0.00 0.00 57 1011.4
20260506160005 60 210 3.0 9.0 0.00 0.00 0.00 56 1011.5
20260506155004 61 222 3.0 8.0 0.00 0.00 0.00 55 1011.5
20260506154004 61 214 9.0 13.0 0.00 0.00 0.00 54 1011.6
20260506152004 62 241 6.0 15.0 0.00 0.00 0.00 53 1011.7
20260506151005 62 243 6.0 13.0 0.00 0.00 0.00 51 1011.8
20260506150005 62 252 5.0 9.0 0.00 0.00 0.00 51 1011.9
20260506145004 62 242 5.0 10.0 0.00 0.00 0.00 52 1012.0
20260506144004 62 31 3.0 9.0 0.00 0.00 0.00 50 1012.2
20260506143005 61 280 2.0 12.0 0.00 0.00 0.00 49 1012.4
20260506142005 62 253 4.0 9.0 0.00 0.00 0.00 49 1012.5
20260506141004 61 232 1.0 8.0 0.00 0.00 0.00 48 1012.7
20260506140005 61 86 3.0 7.0 0.00 0.00 0.00 54 1012.7
20260506135005 60 287 3.0 10.0 0.00 0.00 0.00 52 1012.8
20260506134005 61 234 5.0 12.0 0.00 0.00 0.00 52 1013.0
20260506133005 60 195 0.0 6.0 0.00 0.00 0.00 58 1013.1
20260506132005 58 8 3.0 8.0 0.00 0.00 0.00 58 1013.2
20260506131005 58 3 2.0 5.0 0.00 0.00 0.00 59 1013.3
20260506130005 57 92 1.0 3.0 0.00 0.00 0.00 60 1013.5
20260506125004 57 112 1.0 3.0 0.00 0.01 0.00 60 1013.7
20260506124004 57 232 1.0 3.0 0.00 0.01 0.00 61 1013.8
20260506123005 56 204 0.0 3.0 0.00 0.01 0.00 62 1014.0
20260506122005 57 189 2.0 7.0 0.00 0.01 0.00 64 1014.1
20260506121005 56 157 2.0 5.0 0.00 0.01 0.00 65 1014.1
20260506120005 56 224 3.0 7.0 0.00 0.01 0.00 64 1014.3
20260506114005 56 170 5.0 8.0 0.00 0.01 0.00 62 1014.6
20260506113004 56 133 2.0 5.0 0.00 0.01 0.00 65 1014.8
20260506112005 55 45 3.0 7.0 0.00 0.01 0.00 64 1014.7
20260506111004 56 348 3.0 8.0 0.00 0.01 0.00 64 1014.9
20260506110005 55 37 2.0 10.0 0.00 0.01 0.00 67 1015.0
20260506105005 56 253 3.0 9.0 0.00 0.02 0.00 67 1015.0
20260506102004 54 158 2.0 5.0 0.00 0.02 0.00 67 1015.1
20260506101005 54 169 2.0 5.0 0.00 0.02 0.00 68 1015.2
20260506100005 53 174 1.0 6.0 0.00 0.02 0.00 70 1015.2
20260506095004 52 226 1.0 6.0 0.00 0.02 0.00 71 1015.2
20260506094005 52 183 2.0 6.0 0.00 0.02 0.00 73 1015.2
20260506093004 52 190 2.0 3.0 0.00 0.02 0.00 73 1015.1
20260506092004 51 238 1.0 3.0 0.00 0.02 0.00 74 1015.2
20260506091004 51 231 1.0 3.0 0.00 0.02 0.00 74 1015.3
20260506090004 51 188 2.0 5.0 0.00 0.02 0.00 76 1015.2
20260506085005 51 163 2.0 3.0 0.00 0.02 0.00 76 1015.2
20260506084005 51 259 0.0 3.0 0.00 0.02 0.00 75 1015.3
20260506083004 51 276 1.0 3.0 0.00 0.02 0.00 76 1015.3
20260506082005 51 198 1.0 3.0 0.00 0.02 0.00 77 1015.4
20260506073005 44 233 1.0 3.0 0.00 0.02 0.00 92 1015.8
20260506072005 43 200 1.0 3.0 0.00 0.02 0.00 93 1015.7
20260506071005 42 148 0.0 0.0 0.00 0.02 0.00 93 1015.7
20260506062004 38 18 0.0 0.0 0.00 0.02 0.00 95 1016.0
20260506061005 38 18 0.0 0.0 0.00 0.02 0.00 95 1016.0
20260506051005 38 22 0.0 1.0 0.00 0.02 0.00 94 1015.5
20260506045005 38 16 1.0 3.0 0.00 0.02 0.00 94 1015.4
20260506044005 38 68 0.0 3.0 0.00 0.02 0.00 94 1015.3
20260506043005 38 69 2.0 3.0 0.00 0.02 0.00 94 1015.3
20260506042005 38 88 0.0 2.0 0.00 0.02 0.00 94 1015.4
20260506041004 38 88 0.0 0.0 0.00 0.02 0.00 94 1015.5
20260506035004 39 88 0.0 1.0 0.00 0.02 0.00 93 1015.6
20260506034004 39 88 1.0 3.0 0.00 0.02 0.00 93 1015.6
20260506033005 40 63 0.0 1.0 0.00 0.02 0.00 93 1015.6
20260506032004 40 63 1.0 3.0 0.00 0.02 0.00 93 1015.7
20260506031005 40 73 2.0 3.0 0.00 0.02 0.00 93 1015.7
20260506030004 41 73 0.0 2.0 0.00 0.02 0.00 93 1015.7
20260506025005 41 73 2.0 3.0 0.00 0.02 0.00 93 1015.7
20260506024005 41 117 0.0 0.0 0.00 0.02 0.00 93 1015.5
20260506023005 41 117 0.0 0.0 0.00 0.02 0.00 92 1015.5
20260506022005 41 117 0.0 0.0 0.00 0.02 0.00 91 1015.7
20260506021004 42 117 0.0 0.0 0.00 0.02 0.00 90 1015.8
20260506020004 42 111 0.0 0.0 0.00 0.02 0.00 90 1015.8
20260506014004 43 111 0.0 3.0 0.00 0.02 0.00 89 1015.8
20260506013005 43 111 3.0 3.0 0.00 0.02 0.00 89 1015.7
20260506012004 44 121 1.0 3.0 0.00 0.02 0.00 89 1015.8
20260506011005 45 122 0.0 0.0 0.00 0.02 0.00 89 1015.8
20260506010004 46 70 0.0 0.0 0.00 0.02 0.00 89 1015.9
20260506005004 46 70 0.0 0.0 0.00 0.02 0.00 88 1016.0
20260506004004 46 70 0.0 0.0 0.00 0.02 0.00 89 1016.0
20260506003005 46 70 0.0 0.0 0.00 0.02 0.00 89 1016.0
20260506002004 46 70 0.0 0.0 0.00 0.02 0.00 88 1016.2
20260506001005 46 71 0.0 0.0 0.00 0.02 0.00 89 1016.3
20260506000004 47 70 0.0 3.0 0.00 0.02 0.00 88 1016.3
20260505235005 47 351 0.0 5.0 0.00 0.02 0.00 88 1016.3
20260505234005 47 24 2.0 3.0 0.00 0.02 0.00 89 1016.4
20260505233004 47 28 3.0 5.0 0.00 0.02 0.00 88 1016.4
20260505232004 47 209 0.0 0.0 0.00 0.02 0.00 89 1016.3
20260505231004 47 209 0.0 1.0 0.00 0.02 0.00 89 1016.3
20260505230004 47 209 0.0 1.0 0.00 0.02 0.00 89 1016.3
20260505225004 47 209 0.0 1.0 0.00 0.02 0.00 89 1016.4
20260505224005 46 209 0.0 1.0 0.00 0.02 0.00 89 1016.4
20260505223005 46 209 1.0 1.0 0.00 0.02 0.00 88 1016.5
20260505222005 46 209 0.0 3.0 0.00 0.02 0.00 87 1016.5
20260505221004 48 209 2.0 3.0 0.00 0.02 0.00 86 1016.5